Caldwell, NJ

10:25 PM EST on November 11, 2019 (GMT -0500)
Essex County

Weather History for KCDW - September, 2019

Change the Weather History Date:

Tuesday, September 24, 2019

  Actual Average Record
Temperature  
Mean Temperature 68 °F -  
Max Temperature 78 °F 71 °F 95 °F (1970)
Min Temperature 57 °F 47 °F 30 °F (1963)
Cooling Degree Days 4    
Growing Degree Days 18 (Base 50)    
Moisture  
Dew Point 54 °F    
Average Humidity 63    
Maximum Humidity 90    
Minimum Humidity 37    
Precipitation  
Precipitation 0.00 in - - ()
Sea Level Pressure  
Sea Level Pressure 29.83 in    
Wind  
Wind Speed 4 mph ()    
Max Wind Speed 13 mph    
Max Gust Speed 22 mph    
Visibility 10.0 miles    
Events      
Averages and records for this station are not official NWS values.
T = Trace of Precipitation, MM = Missing Value Source: Averaged Metar Reports

Daily Weather History Graph

Daily Weather History Graph

Search for Another Location

Airport or City:

Astronomy

Sep. 24, 2019 Rise Set
Actual Time 6:46 AM EDT 6:51 PM EDT
Civil Twilight 6:19 AM EDT 7:18 PM EDT
Nautical Twilight 5:46 AM EDT 7:50 PM EDT
Astronomical Twilight 5:14 AM EDT 8:23 PM EDT
Moon 1:26 AM EDT (9/24) 4:37 PM EDT (9/24)
Length of Visible Light 12h 59m
Length of Day
12h 04m
Waning Crescent, 23% of the Moon is Illuminated
Sep 24
Waning Crescent
Sep 28
New
Oct 5
First Quarter
Oct 13
Full
Oct 21
Last Quarter

Hourly Weather History & Observations

Time (EDT) Temp. Dew Point Humidity Pressure Visibility Wind Dir Wind Speed Gust Speed Precip Events Conditions
12:53 AM 70.0 °F 64.0 °F 81% 29.78 in 10.0 mi NNW 3.5 mph - N/A   Overcast
1:53 AM 69.1 °F 61.0 °F 75% 29.78 in 10.0 mi SSW 4.6 mph - N/A   Clear
2:53 AM 66.9 °F 61.0 °F 81% 29.78 in 10.0 mi Calm Calm - N/A   Clear
3:53 AM 64.9 °F 61.0 °F 87% 29.78 in 10.0 mi Calm Calm - N/A   Clear
4:53 AM 64.0 °F 60.1 °F 87% 29.79 in 10.0 mi Calm Calm - N/A   Clear
5:53 AM 64.0 °F 60.1 °F 87% 29.81 in 10.0 mi Calm Calm - N/A   Clear
6:53 AM 63.0 °F 60.1 °F 90% 29.83 in 10.0 mi Calm Calm - N/A   Clear
7:53 AM 64.9 °F 59.0 °F 81% 29.83 in 10.0 mi Variable 3.5 mph - N/A   Clear
8:53 AM 69.1 °F 55.9 °F 63% 29.84 in 10.0 mi Variable 3.5 mph - N/A   Clear
9:53 AM 71.1 °F 55.0 °F 57% 29.85 in 10.0 mi WNW 8.1 mph - N/A   Mostly Cloudy
10:53 AM 71.1 °F 53.1 °F 53% 29.85 in 10.0 mi NW 9.2 mph - N/A   Mostly Cloudy
11:53 AM 75.0 °F 53.1 °F 46% 29.84 in 10.0 mi WNW 11.5 mph 18.4 mph N/A   Mostly Cloudy
12:53 PM 73.9 °F 52.0 °F 46% 29.83 in 10.0 mi WNW 9.2 mph - N/A   Overcast
1:53 PM 75.9 °F 51.1 °F 42% 29.82 in 10.0 mi NW 12.7 mph 21.9 mph N/A   Mostly Cloudy
2:53 PM 77.0 °F 51.1 °F 40% 29.81 in 10.0 mi WNW 12.7 mph 19.6 mph N/A   Scattered Clouds
3:53 PM 77.0 °F 51.1 °F 40% 29.80 in 10.0 mi NW 6.9 mph - N/A   Mostly Cloudy
4:53 PM 75.9 °F 48.9 °F 38% 29.81 in 10.0 mi NW 11.5 mph 20.7 mph N/A   Clear
5:53 PM 75.0 °F 46.9 °F 37% 29.83 in 10.0 mi NW 8.1 mph - N/A   Clear
6:53 PM 72.0 °F 46.9 °F 41% 29.85 in 10.0 mi NW 8.1 mph - N/A   Clear
7:53 PM 69.1 °F 48.9 °F 49% 29.87 in 10.0 mi Calm Calm - N/A   Scattered Clouds
8:53 PM 64.9 °F 51.1 °F 61% 29.90 in 10.0 mi Calm Calm - N/A   Clear
9:53 PM 62.1 °F 51.1 °F 67% 29.91 in 10.0 mi Calm Calm - N/A   Clear
10:53 PM 60.1 °F 52.0 °F 75% 29.92 in 10.0 mi Calm Calm - N/A   Clear
11:53 PM 57.9 °F 52.0 °F 81% 29.91 in 10.0 mi Calm Calm - N/A   Clear